Total_Precipitation_Accumulation
0.00 0.00 0.00 0.00 0.00 0.00 0.00 0.01 0.03 0.07 0.09 0.10 0.13 0.13 0.14 0.24 0.52 1.03 0.58 0.31 0.16 0.06 0.04 0.04 0.03 0.03 0.05 0.07 0.11 0.11 0.10 0.12 0.13 0.13 0.13 0.10 0.08 0.07 0.07 0.07 0.11 0.17 0.18 0.17 0.13 0.11 0.12 0.12 0.10
0.00 0.00 0.00 0.00 0.00 0.00 0.01 0.02 0.04 0.07 0.09 0.11 0.18 0.16 0.15 0.20 0.25 0.20 0.23 0.23 0.15 0.07 0.04 0.03 0.04 0.04 0.05 0.05 0.09 0.14 0.12 0.11 0.11 0.11 0.10 0.09 0.08 0.08 0.08 0.09 0.11 0.14 0.14 0.10 0.08 0.07 0.07 0.09 0.08
0.00 0.00 0.00 0.00 0.00 0.00 0.02 0.05 0.08 0.09 0.09 0.13 0.27 0.40 0.36 0.34 0.38 0.25 0.20 0.15 0.12 0.06 0.03 0.04 0.05 0.06 0.07 0.06 0.06 0.12 0.15 0.14 0.14 0.13 0.12 0.12 0.11 0.10 0.09 0.11 0.12 0.13 0.12 0.14 0.13 0.11 0.08 0.08 0.08
0.00 0.00 0.00 0.00 0.00 0.00 0.02 0.07 0.12 0.10 0.11 0.13 0.22 0.47 0.41 0.34 0.38 0.36 0.21 0.17 0.16 0.11 0.06 0.05 0.06 0.08 0.10 0.09 0.09 0.11 0.14 0.16 0.17 0.16 0.15 0.14 0.13 0.12 0.10 0.11 0.12 0.12 0.13 0.16 0.19 0.14 0.09 0.07 0.08
0.00 0.00 0.00 0.00 0.00 0.01 0.03 0.07 0.11 0.11 0.13 0.18 0.21 0.44 0.52 0.42 0.45 0.57 0.46 0.31 0.25 0.19 0.15 0.10 0.10 0.09 0.11 0.13 0.14 0.16 0.15 0.17 0.20 0.19 0.17 0.15 0.15 0.14 0.13 0.13 0.12 0.14 0.17 0.19 0.16 0.11 0.07 0.06 0.07
0.00 0.00 0.00 0.00 0.00 0.01 0.04 0.06 0.08 0.11 0.15 0.27 0.29 0.58 0.91 0.82 0.75 0.82 0.80 0.50 0.36 0.28 0.22 0.17 0.15 0.12 0.14 0.17 0.18 0.23 0.25 0.24 0.24 0.22 0.19 0.17 0.15 0.15 0.17 0.16 0.16 0.19 0.23 0.21 0.13 0.07 0.05 0.05 0.06
0.00 0.00 0.00 0.00 0.01 0.03 0.05 0.08 0.11 0.14 0.22 0.36 0.44 0.81 1.07 1.09 1.10 0.90 0.85 0.67 0.39 0.35 0.35 0.32 0.24 0.20 0.22 0.24 0.23 0.25 0.31 0.31 0.28 0.27 0.28 0.26 0.25 0.23 0.22 0.21 0.20 0.23 0.23 0.18 0.11 0.07 0.05 0.05 0.06
0.00 0.00 0.00 0.00 0.01 0.03 0.06 0.08 0.12 0.18 0.29 0.40 0.56 0.95 1.25 1.22 1.11 0.98 0.83 0.83 0.59 0.52 0.53 0.53 0.53 0.45 0.32 0.29 0.31 0.30 0.37 0.39 0.33 0.31 0.33 0.32 0.27 0.24 0.22 0.19 0.20 0.20 0.19 0.15 0.12 0.10 0.07 0.06 0.05
0.00 0.00 0.00 0.00 0.01 0.03 0.07 0.08 0.13 0.21 0.34 0.52 0.53 0.70 1.10 0.97 1.08 1.30 1.13 1.03 0.87 0.71 0.69 0.62 0.67 0.65 0.46 0.38 0.34 0.35 0.40 0.46 0.41 0.34 0.34 0.32 0.39 0.40 0.33 0.24 0.25 0.22 0.20 0.18 0.15 0.11 0.08 0.06 0.05
0.00 0.00 0.00 0.00 0.00 0.03 0.07 0.12 0.19 0.25 0.25 0.40 0.53 0.56 0.78 0.94 1.01 1.21 1.43 1.27 1.09 0.93 0.90 0.83 0.69 0.62 0.57 0.45 0.42 0.46 0.44 0.46 0.43 0.44 0.41 0.45 0.69 0.78 0.60 0.59 0.46 0.36 0.30 0.25 0.20 0.15 0.11 0.08 0.06
0.00 0.00 0.00 0.00 0.01 0.03 0.06 0.12 0.18 0.27 0.37 0.52 0.70 0.76 0.81 0.97 1.20 1.29 1.60 1.51 1.38 1.28 1.06 1.11 0.97 0.80 0.89 0.90 0.74 0.68 0.66 0.66 0.61 0.76 0.76 0.81 0.90 0.85 0.83 0.91 0.69 0.55 0.47 0.44 0.41 0.25 0.20 0.17 0.18
0.00 0.00 0.00 0.00 0.01 0.02 0.04 0.06 0.17 0.32 0.66 0.80 1.08 1.31 1.29 1.16 1.42 1.50 1.82 1.75 1.72 1.69 1.44 1.33 1.31 1.16 1.22 1.42 1.26 0.98 0.89 0.92 0.92 1.02 0.93 1.06 1.18 1.15 1.11 1.17 0.98 0.88 0.85 0.87 0.77 0.60 0.49 0.43 0.34
0.00 0.00 0.00 0.01 0.01 0.02 0.03 0.08 0.15 0.31 0.55 0.69 1.07 1.47 1.44 1.22 1.21 1.39 1.99 1.83 1.80 1.83 1.74 1.49 1.54 1.48 1.51 1.68 1.56 1.34 1.28 1.16 1.16 1.31 1.21 1.23 1.30 1.34 1.41 1.30 1.22 1.14 1.12 1.09 0.96 0.89 0.85 0.75 0.68
0.00 0.00 0.01 0.01 0.01 0.04 0.06 0.11 0.14 0.23 0.26 0.39 0.67 0.91 0.95 1.01 1.06 1.18 1.56 1.66 1.60 1.64 1.73 1.82 1.81 1.81 1.64 1.67 1.64 1.50 1.37 1.38 1.33 1.36 1.36 1.30 1.35 1.54 1.59 1.56 1.50 1.45 1.47 1.56 1.38 1.18 1.18 1.07 1.03
0.00 0.00 0.01 0.02 0.03 0.07 0.08 0.15 0.24 0.33 0.27 0.35 0.47 0.46 0.64 0.79 1.01 1.24 1.41 1.48 1.52 1.55 1.64 1.82 1.87 1.90 1.82 1.76 1.78 1.76 1.66 1.62 1.62 1.68 1.73 1.58 1.50 1.71 1.77 1.90 1.85 1.78 1.76 1.81 1.76 1.60 1.57 1.45 1.37
0.00 0.01 0.02 0.04 0.04 0.06 0.08 0.22 0.37 0.41 0.36 0.30 0.29 0.29 0.41 0.64 0.85 1.00 1.09 1.25 1.27 1.28 1.43 1.53 1.66 1.74 1.92 2.02 2.14 2.01 2.04 2.00 2.00 1.88 1.86 1.75 1.71 1.85 2.00 2.09 2.09 2.05 2.00 2.10 2.18 2.10 1.91 1.80 1.66
0.00 0.01 0.03 0.05 0.04 0.05 0.08 0.25 0.41 0.35 0.38 0.34 0.28 0.25 0.31 0.48 0.63 0.71 0.80 0.94 1.05 1.12 1.39 1.52 1.64 1.83 1.95 2.07 2.28 2.31 2.42 2.38 2.35 2.31 2.20 2.24 2.29 2.22 2.27 2.38 2.46 2.46 2.49 2.51 2.44 2.48 2.22 2.16 2.05
0.03 0.03 0.06 0.05 0.03 0.05 0.09 0.21 0.31 0.38 0.43 0.43 0.44 0.41 0.39 0.44 0.63 0.69 0.70 0.86 0.99 1.17 1.42 1.63 1.80 2.05 2.32 2.38 2.53 2.51 2.71 2.86 2.96 3.10 2.99 2.85 2.89 2.89 2.96 2.93 2.96 2.92 2.97 2.84 2.78 2.74 2.52 2.34 2.31
0.04 0.04 0.08 0.06 0.06 0.07 0.11 0.24 0.37 0.49 0.62 0.64 0.57 0.51 0.51 0.53 0.60 0.74 0.91 1.13 1.39 1.58 1.63 1.72 1.86 2.06 2.26 2.57 2.91 3.09 3.20 3.42 3.58 3.71 3.87 3.85 3.80 3.87 3.89 3.76 3.65 3.49 3.34 3.17 3.05 2.87 2.69 2.47 2.37
0.01 0.04 0.07 0.07 0.08 0.11 0.19 0.33 0.46 0.53 0.59 0.69 0.70 0.68 0.64 0.67 0.73 0.99 1.25 1.60 1.75 1.80 1.82 1.89 1.96 2.21 2.49 2.86 3.30 3.75 3.97 4.15 4.19 4.25 4.46 4.58 4.60 4.75 4.84 4.73 4.51 4.29 3.92 3.48 3.14 2.94 2.79 2.55 2.48
0.01 0.03 0.05 0.08 0.08 0.13 0.27 0.50 0.65 0.64 0.70 0.75 0.81 0.95 0.90 0.92 1.06 1.24 1.46 1.57 1.73 1.82 1.91 2.00 2.27 2.69 3.13 3.59 4.09 4.54 4.84 4.93 4.88 4.61 4.69 4.84 4.81 4.89 5.06 5.04 4.79 4.41 3.83 3.32 3.12 3.01 2.88 2.71 2.61
0.02 0.02 0.04 0.05 0.07 0.15 0.23 0.56 0.85 0.87 0.90 0.84 0.88 0.99 0.96 0.99 1.10 1.22 1.42 1.60 1.70 1.83 2.00 2.09 2.39 2.94 3.44 3.90 4.56 5.07 5.38 5.56 5.66 5.43 5.12 4.97 4.81 4.69 4.62 4.51 4.12 3.68 3.33 3.04 2.93 2.89 2.70 2.67 2.56
0.02 0.01 0.02 0.03 0.05 0.12 0.17 0.41 0.92 1.06 1.15 1.07 1.02 1.08 0.94 0.86 0.92 1.05 1.19 1.48 1.71 1.80 1.83 1.90 2.28 2.86 3.59 4.30 4.84 5.31 5.68 5.83 5.81 5.46 5.07 4.68 4.34 3.94 3.61 3.29 3.03 2.90 2.70 2.49 2.39 2.36 2.31 2.19 2.09
0.01 0.01 0.01 0.03 0.07 0.16 0.19 0.36 0.91 1.27 1.51 1.56 1.25 1.08 0.95 0.85 0.83 0.86 0.97 1.18 1.47 1.54 1.66 1.87 2.19 2.87 3.62 4.21 4.73 5.09 5.42 5.47 5.21 4.79 4.34 4.04 3.66 3.22 2.80 2.58 2.37 2.23 2.05 1.83 1.71 1.70 1.74 1.81 1.86
0.02 0.04 0.15 0.25 0.30 0.29 0.25 0.43 0.99 1.26 1.25 1.21 1.15 1.10 1.02 0.85 0.80 0.82 0.86 0.98 1.19 1.35 1.61 1.94 2.30 2.81 3.26 3.76 4.20 4.44 4.62 4.67 4.60 4.36 4.00 3.73 3.33 2.91 2.48 2.11 1.91 1.69 1.51 1.41 1.36 1.34 1.35 1.41 1.51
0.02 0.05 0.26 0.38 0.40 0.43 0.49 0.81 1.31 1.18 0.97 0.95 1.00 0.98 0.93 0.88 0.85 0.95 1.03 1.11 1.20 1.31 1.46 1.77 2.09 2.48 2.70 2.93 3.26 3.47 3.60 3.64 3.55 3.39 3.14 2.86 2.58 2.33 2.02 1.61 1.31 1.13 1.01 0.95 0.97 1.01 1.07 1.11 1.16
0.04 0.07 0.14 0.17 0.23 0.44 0.77 1.18 1.64 1.59 1.14 0.97 0.99 0.94 0.89 0.87 0.85 0.98 1.07 1.10 1.12 1.16 1.31 1.44 1.59 1.84 2.10 2.32 2.45 2.55 2.60 2.52 2.44 2.28 2.06 1.88 1.71 1.53 1.32 1.10 0.96 0.87 0.82 0.77 0.73 0.74 0.78 0.83 0.89
0.06 0.09 0.11 0.18 0.35 0.63 0.87 1.34 1.93 1.97 1.55 1.25 1.14 1.07 0.92 0.85 0.87 0.97 1.01 1.02 0.98 0.94 1.03 1.13 1.26 1.39 1.55 1.68 1.72 1.65 1.64 1.64 1.51 1.38 1.29 1.15 1.01 0.90 0.84 0.75 0.72 0.69 0.64 0.62 0.62 0.60 0.60 0.69 0.72
0.08 0.09 0.15 0.22 0.28 0.60 1.02 1.60 1.93 2.16 2.05 1.70 1.29 1.03 0.93 0.91 0.89 0.91 0.90 0.88 0.82 0.76 0.80 0.88 0.94 1.07 1.15 1.19 1.20 1.11 1.04 0.97 0.90 0.82 0.81 0.74 0.67 0.65 0.62 0.57 0.55 0.56 0.56 0.54 0.52 0.54 0.52 0.57 0.67
0.10 0.11 0.15 0.28 0.34 0.42 0.83 1.75 2.05 2.37 2.32 1.97 1.50 1.13 1.02 0.97 0.90 0.83 0.78 0.74 0.70 0.67 0.66 0.69 0.76 0.80 0.81 0.79 0.76 0.73 0.67 0.64 0.62 0.59 0.57 0.59 0.56 0.53 0.52 0.49 0.49 0.50 0.52 0.53 0.52 0.51 0.52 0.54 0.60